Weather History for KUZA - February, 2014

Change the Weather History Date:

Monday, February 24, 2014

  Actual Average Record
Temperature  
Mean Temperature 52 °F -  
Max Temperature 66 °F 58 °F 81 °F (1982)
Min Temperature 39 °F 36 °F 22 °F (1989)
Degree Days  
Heating Degree Days 12    
Growing Degree Days 2 (Base 50)    
Moisture  
Dew Point 32 °F    
Average Humidity 52    
Maximum Humidity 92    
Minimum Humidity 21    
Precipitation  
Precipitation 0.00 in - - ()
Sea Level Pressure  
Sea Level Pressure 30.03 in    
Wind  
Wind Speed 4 mph (North)    
Max Wind Speed 8 mph    
Max Gust Speed -    
Visibility 10 miles    
Events      
Averages and records for this station are not official NWS values.
T = Trace of Precipitation, MM = Missing Value Source: NWS Daily Summary

Daily Weather History Graph

Daily Weather History Graph

Search for Another Location

Airport or City:

Trip Planner

Search our weather history database for the weather conditions in past years. The results will help you decide how hot, cold, wet, or windy it might be!

Date:

Astronomy

Feb. 24, 2014 Rise Set
Actual Time 6:59 AM EST 6:15 PM EST
Civil Twilight 6:34 AM EST 6:41 PM EST
Nautical Twilight 6:04 AM EST 7:10 PM EST
Astronomical Twilight 5:35 AM EST 7:39 PM EST
Moon 2:50 AM EST (2/24) 1:21 PM EST (2/24)
Length of Visible Light 12h 06m
Length of Day
11h 15m
Waning Crescent, 28% of the Moon is Illuminated
Feb 24
Waning Crescent
Mar 1
New
Mar 8
First Quarter
Mar 16
Full
Mar 23
Last Quarter

Hourly Weather History & Observations

Time (EST) Temp. Windchill Dew Point Humidity Pressure Visibility Wind Dir Wind Speed Gust Speed Precip Events Conditions
12:54 AM 50.0 °F - 45.0 °F 83% 29.90 in 10.0 mi WSW 5.8 mph - N/A   Clear
1:54 AM 46.0 °F 44.8 °F 43.0 °F 89% 29.90 in 10.0 mi West 3.5 mph - N/A   Clear
2:54 AM 48.0 °F - 43.0 °F 83% 29.90 in 10.0 mi WNW 3.5 mph - N/A   Clear
3:54 AM 42.1 °F 38.4 °F 39.9 °F 92% 29.93 in 10.0 mi North 5.8 mph - N/A   Clear
4:54 AM 43.0 °F 38.8 °F 37.9 °F 82% 29.96 in 10.0 mi North 6.9 mph - N/A   Clear
5:54 AM 39.0 °F 35.7 °F 36.0 °F 89% 30.00 in 10.0 mi North 4.6 mph - N/A   Clear
6:54 AM 39.9 °F - 35.1 °F 83% 30.04 in 10.0 mi Calm Calm - N/A   Clear
7:54 AM 46.0 °F - 37.0 °F 71% 30.06 in 10.0 mi Calm Calm - N/A   Clear
8:54 AM 52.0 °F - 37.0 °F 57% 30.08 in 10.0 mi North 8.1 mph - N/A   Clear
9:54 AM 54.0 °F - 35.1 °F 49% 30.09 in 10.0 mi Variable 5.8 mph - N/A   Clear
10:54 AM 57.0 °F - 35.1 °F 44% 30.09 in 10.0 mi North 6.9 mph - N/A   Clear
11:54 AM 57.9 °F - 34.0 °F 41% 30.07 in 10.0 mi Variable 4.6 mph - N/A   Clear
12:54 PM 62.1 °F - 33.1 °F 34% 30.05 in 10.0 mi Variable 3.5 mph - N/A   Clear
1:54 PM 63.0 °F - 30.9 °F 30% 30.02 in 10.0 mi Variable 4.6 mph - N/A   Clear
2:54 PM 66.0 °F - 28.9 °F 25% 30.01 in 10.0 mi Variable 4.6 mph - N/A   Clear
3:54 PM 66.9 °F - 26.1 °F 21% 30.02 in 10.0 mi NNW 8.1 mph - N/A   Clear
4:54 PM 64.9 °F - 24.1 °F 21% 30.03 in 10.0 mi North 5.8 mph - N/A   Clear
5:54 PM 61.0 °F - 21.0 °F 21% 30.06 in 10.0 mi NNW 3.5 mph - N/A   Clear
6:54 PM 52.0 °F - 26.1 °F 37% 30.08 in 10.0 mi Calm Calm - N/A   Clear
7:54 PM 52.0 °F - 27.0 °F 38% 30.09 in 10.0 mi NNE 4.6 mph - N/A   Clear
8:54 PM 51.1 °F - 24.1 °F 35% 30.11 in 10.0 mi NE 3.5 mph - N/A   Clear
9:54 PM 46.9 °F - 21.9 °F 37% 30.12 in 10.0 mi NNE 4.6 mph - N/A   Clear
10:54 PM 46.0 °F - 21.0 °F 37% 30.12 in 10.0 mi Calm Calm - N/A   Clear
11:54 PM 44.1 °F - 21.9 °F 42% 30.10 in 10.0 mi Calm Calm - N/A   Clear